GSAT0101 (GALILEO-PFM) 1 37846U 11060A 25288.24245457 -.00000099 00000+0 00000+0 0 9991 2 37846 57.0665 348.4087 0001101 292.0900 67.9538 1.70475670 86940 GSAT0102 (GALILEO-FM2) 1 37847U 11060B 25287.58155370 -.00000099 00000+0 00000+0 0 9992 2 37847 57.0691 348.4271 0003102 298.1793 61.6794 1.70475799 86931 GSAT0103 (GALILEO-FM3) 1 38857U 12055A 25285.34954797 .00000041 00000+0 00000+0 0 9997 2 38857 55.6539 108.3517 0001585 280.0952 79.9294 1.70473424 80781 GSAT0201 (GALILEO 5) 1 40128U 14050A 25287.10005929 -.00000025 00000+0 00000+0 0 9991 2 40128 49.1445 283.4915 1642437 170.0142 193.7085 1.85519474 73757 GSAT0202 (GALILEO 6) 1 40129U 14050B 25288.43450528 -.00000035 00000+0 00000+0 0 9999 2 40129 49.1590 282.5200 1643096 170.8227 192.6028 1.85520227 75946 GSAT0203 (GALILEO 7) 1 40544U 15017A 25288.60730335 -.00000100 00000+0 00000+0 0 9993 2 40544 56.8600 348.2667 0005736 255.0454 104.9469 1.70476186 65033 GSAT0204 (GALILEO 8) 1 40545U 15017B 25285.92970071 -.00000096 00000+0 00000+0 0 9993 2 40545 56.8671 348.3573 0005833 244.5443 115.4520 1.70475558 28034 GSAT0205 (GALILEO 9) 1 40889U 15045A 25288.04410207 -.00000029 00000+0 00000+0 0 9997 2 40889 55.0287 228.3782 0004505 24.5221 335.4793 1.70472889 62839 GSAT0206 (GALILEO 10) 1 40890U 15045B 25288.26476222 -.00000031 00000+0 00000+0 0 9995 2 40890 55.0257 228.3671 0002521 6.3362 353.6461 1.70472780 62862 GSAT0209 (GALILEO 12) 1 41174U 15079A 25286.67376306 .00000044 00000+0 00000+0 0 9996 2 41174 55.6743 108.0291 0002795 12.1422 347.9080 1.70474104 60572 GSAT0208 (GALILEO 11) 1 41175U 15079B 25288.06705420 .00000050 00000+0 00000+0 0 9992 2 41175 55.6741 107.9881 0002640 22.7408 337.3178 1.70473927 61017 GSAT0211 (GALILEO 14) 1 41549U 16030A 25286.43073388 -.00000014 00000+0 00000+0 0 9996 2 41549 55.1760 228.4812 0003438 340.2445 19.7275 1.70472911 58462 GSAT0210 (GALILEO 13) 1 41550U 16030B 25286.10173839 -.00000011 00000+0 00000+0 0 9991 2 41550 55.1757 228.4885 0003050 248.2945 111.6591 1.70473393 58459 GSAT0207 (GALILEO 15) 1 41859U 16069A 25287.55369709 .00000046 00000+0 00000+0 0 9995 2 41859 55.3446 107.8887 0002203 348.3520 11.6884 1.70474011 55213 GSAT0212 (GALILEO 16) 1 41860U 16069B 25284.47451211 .00000040 00000+0 00000+0 0 9999 2 41860 55.3403 107.9694 0003011 40.6045 319.4611 1.70474144 55413 GSAT0213 (GALILEO 17) 1 41861U 16069C 25286.60192762 .00000043 00000+0 00000+0 0 9993 2 41861 55.3456 107.9179 0001554 303.9367 56.0918 1.70474552 55318 GSAT0214 (GALILEO 18) 1 41862U 16069D 25286.74785872 .00000043 00000+0 00000+0 0 9999 2 41862 55.3455 107.9070 0000847 338.8678 21.1722 1.70474252 55441 GSAT0215 (GALILEO 19) 1 43055U 17079A 25287.23750608 -.00000022 00000+0 00000+0 0 9999 2 43055 55.1534 228.2743 0002466 284.5802 75.3757 1.70473687 48792 GSAT0216 (GALILEO 20) 1 43056U 17079B 25285.76908237 -.00000008 00000+0 00000+0 0 9993 2 43056 55.1568 228.3146 0003924 289.3361 70.6081 1.70473799 48782 GSAT0217 (GALILEO 21) 1 43057U 17079C 25287.16292897 -.00000021 00000+0 00000+0 0 9993 2 43057 55.1514 228.2743 0003455 307.4063 52.5457 1.70473747 48796 GSAT0218 (GALILEO 22) 1 43058U 17079D 25287.96957501 -.00000029 00000+0 00000+0 0 9990 2 43058 55.1524 228.2499 0004290 285.9908 73.9424 1.70473777 48831 GSAT0221 (GALILEO 25) 1 43564U 18060A 25287.28580703 -.00000098 00000+0 00000+0 0 9990 2 43564 57.2414 348.4253 0006094 270.4643 89.5214 1.70475934 44974 GSAT0222 (GALILEO 26) 1 43565U 18060B 25286.33188592 -.00000096 00000+0 00000+0 0 9994 2 43565 57.2452 348.4540 0005700 246.0018 113.9948 1.70475764 45006 GSAT0219 (GALILEO 23) 1 43566U 18060C 25288.31285366 -.00000099 00000+0 00000+0 0 9995 2 43566 57.2440 348.4022 0004591 271.5293 88.4739 1.70476054 45012 GSAT0220 (GALILEO 24) 1 43567U 18060D 25288.53375867 -.00000099 00000+0 00000+0 0 9996 2 43567 57.2436 348.3957 0005036 268.5661 91.4322 1.70475960 45000 GSAT0223 (GALILEO 27) 1 49809U 21116A 25288.38024330 -.00000099 00000+0 00000+0 0 9996 2 49809 57.2330 348.2909 0004501 227.9130 128.5868 1.70476091 24000 GSAT0224 (GALILEO 28) 1 49810U 21116B 25287.60435267 -.00000099 00000+0 00000+0 0 9997 2 49810 57.2385 348.3103 0004155 243.3255 109.5641 1.70475866 24012 GSAT0225 (GALILEO 29) 1 59598U 24079A 25288.50219997 .00000049 00000+0 00000+0 0 9996 2 59598 54.9640 107.9228 0002063 147.3045 28.9107 1.70474371 9145 GSAT0227 (GALILEO 30) 1 59600U 24079C 25284.87908336 .00000038 00000+0 00000+0 0 9996 2 59600 54.9565 108.0239 0004003 105.2659 254.8209 1.70474327 9132 GSAT0232 (GALILEO 32) 1 61182U 24167A 25287.79264071 -.00000027 00000+0 00000+0 0 9996 2 61182 55.2638 228.0467 0003791 232.8844 310.1457 1.70473256 6696 GSAT0226 (GALILEO 31) 1 61183U 24167B 25286.11246465 -.00000011 00000+0 00000+0 0 9992 2 61183 55.2635 228.0983 0001593 229.7741 114.7326 1.70473280 6630